Flag for U.S.A. Weather past 2 weeks in Pasadena, California, U.S.A.

Now
69 °F

Clear.


Feels Like: 69 °F
Forecast: 66 / 94 °F
Wind: No wind

Location: Burbank-Glendale-Pasadena Airport

Current Time: Jul 23, 2014 at 7:37:45 AM

Latest Report: Jul 23, 2014 at 6:53 AM


Visibility: 10 mi

Pressure: 29.97 "Hg

Humidity: 63%

Dew point: 56 °F

Location of PasadenaLocation

Historic Weather in Pasadena — Graph

°F

Pasadena temperature yesterday

Maximum temperature yesterday: 86 °F (at 4:53 PM)
Minimum temperature yesterday: 65 °F (at 4:53 AM)
Average temperature yesterday: 74 °F

Past Weeks' High & Low Weather Summary

 TemperatureHumidityPressure
High88 °F (Jul 8, 4:53 PM)87% (Jul 10, 3:53 AM)30.03 "Hg (Jul 10, 3:53 AM)
Low62 °F (Jul 18, 4:53 AM)26% (Jul 22, 7:53 PM)29.80 "Hg (Jul 13, 4:53 PM)
Average72 °F64%29.93 "Hg
* Reported Jul 8 5:53 AM — Jul 23 5:53 AM, Pasadena, Weather by CustomWeather, © 2014

Note: Actual official high and low records may vary slightly from our data, if they occured in-between our weather recording intervals... More about our weather records

Advertising

Pasadena weather history for previous 24 hours

 ConditionsComfort  
Time TempWeatherWind HumidityBarometerVisibility
5:53 AM
Jul 23
68 °FClear.No wind61%29.96 "Hg10 mi
4:53 AM68 °FClear.No wind53%29.95 "Hg10 mi
3:53 AM69 °FClear.No wind57%29.95 "Hg10 mi
2:53 AM70 °FClear.No wind59%29.96 "Hg10 mi
1:53 AM71 °FClear.5 mph59%29.96 "Hg10 mi
12:53 AM72 °FClear.3 mph48%29.96 "Hg10 mi
10:53 PM
Jul 22
75 °FClear.No wind42%29.97 "Hg10 mi
9:53 PM77 °FClear.5 mph40%29.97 "Hg10 mi
8:53 PM80 °FSunny.7 mph42%29.96 "Hg10 mi
7:53 PM85 °FSunny.6 mph26%29.95 "Hg10 mi
6:53 PM86 °FSunny.5 mph29%29.94 "Hg10 mi
5:53 PM86 °FSunny.8 mph28%29.94 "Hg10 mi
4:53 PM86 °FSunny.10 mph31%29.96 "Hg10 mi
9:53 AM76 °FSunny.No wind54%30.02 "Hg10 mi
8:53 AM71 °FSunny.No wind66%30.02 "Hg10 mi
7:53 AM68 °FSunny.No wind73%30.02 "Hg10 mi
Weather by CustomWeather, © 2014

See weather overviewHow to use our weather pages